FW8627 Weather Reports


time (UTC)temp
C
wind
direction
speed
KPH
gust
KPH
rain 1hr
cm
rain 24hr
cm
rain mn
cm
humidity
%
barometer
mb
20260507001010 12 269 9.7 19.3 0.38 1.78 1.78 100 1004.7
20260507000509 12 241 9.7 17.7 0.43 1.75 1.75 100 1004.6
20260507000009 12 269 6.4 16.1 0.51 1.73 1.73 100 1004.5
20260506235508 13 239 6.4 14.5 0.56 1.70 1.70 100 1004.3
20260506235009 13 256 6.4 16.1 0.58 1.65 1.65 100 1004.2
20260506234509 13 271 4.8 16.1 0.56 1.60 1.60 100 1004.2
20260506234007 14 231 4.8 12.9 0.48 1.50 1.50 100 1004.2
20260506233512 14 229 6.4 14.5 0.48 1.45 1.45 100 1004.0
20260506233011 14 244 4.8 9.7 0.51 1.45 1.45 100 1004.1
20260506232507 14 184 4.8 14.5 0.51 1.45 1.45 100 1004.0
20260506232006 14 276 6.4 14.5 0.48 1.42 1.42 100 1003.9
20260506231506 14 198 4.8 12.9 0.48 1.42 1.42 100 1003.9
20260506231010 14 199 3.2 12.9 0.41 1.37 1.37 100 1004.1
20260506230504 14 264 1.6 11.3 0.33 1.30 1.30 100 1004.1
20260506230014 14 259 1.6 11.3 0.23 1.30 1.19 100 1004.1
20260506225503 14 273 1.6 14.5 0.18 1.24 1.14 100 1004.1
20260506225003 14 221 1.6 14.5 0.10 1.17 1.07 100 1004.1
20260506224503 14 250 4.8 16.1 0.10 1.14 1.04 100 1004.1
20260506224002 14 217 4.8 17.7 0.08 1.12 1.02 100 1003.9
20260506223502 14 227 6.4 17.7 0.05 1.09 0.99 100 1004.1
20260506223002 14 207 4.8 19.3 0.05 1.07 0.97 100 1004.0
20260506222501 14 213 9.7 19.3 0.05 1.07 0.97 100 1004.1
20260506222100 14 250 8.0 14.5 0.05 1.07 0.97 100 1004.1
20260506221628 14 179 8.0 16.1 0.08 1.07 0.97 100 1004.1
20260506221059 14 202 6.4 14.5 0.08 1.07 0.97 100 1004.2
20260506220558 14 216 3.2 11.3 0.13 1.07 0.97 100 1004.4
20260506220129 14 194 4.8 14.5 0.15 1.07 0.97 100 1004.5
20260506215557 14 196 8.0 14.5 0.15 1.09 0.97 100 1004.5
20260506215056 14 212 6.4 14.5 0.15 1.09 0.97 100 1004.4
20260506214556 14 227 6.4 16.1 0.13 1.07 0.94 100 1004.4
20260506214055 14 234 6.4 16.1 0.15 1.07 0.94 100 1004.4
20260506213554 14 208 4.8 12.9 0.15 1.07 0.94 100 1004.5
20260506213106 14 192 3.2 8.0 0.13 1.04 0.91 100 1004.5
20260506212553 14 198 1.6 9.7 0.13 1.04 0.91 100 1004.5
20260506212052 14 192 3.2 11.3 0.13 1.04 0.91 100 1004.5
20260506211553 14 157 3.2 11.3 0.10 1.02 0.89 100 1004.5
20260506211050 14 180 0.0 9.7 0.13 1.02 0.89 100 1004.5
20260506210550 14 146 3.2 9.7 0.08 0.97 0.84 100 1004.6
20260506210056 14 159 1.6 6.4 0.05 0.94 0.81 100 1004.5
20260506205548 14 113 1.6 4.8 0.10 0.94 0.81 100 1004.5
20260506205049 14 133 0.0 6.4 0.18 0.94 0.81 100 1004.6
20260506204547 14 184 3.2 6.4 0.23 0.94 0.81 100 1004.8
20260506204045 14 182 3.2 11.3 0.25 0.91 0.79 100 1004.9
20260506203547 14 192 0.0 11.3 0.28 0.91 0.79 100 1004.9
20260506203044 14 215 3.2 11.3 0.28 0.91 0.79 100 1004.9
20260506202543 14 238 1.6 8.0 0.30 0.91 0.79 100 1004.9
20260506202042 14 220 0.0 6.4 0.33 0.91 0.79 100 1005.1
20260506201546 14 220 3.2 14.5 0.33 0.91 0.79 100 1005.1
20260506201041 14 186 4.8 17.7 0.30 0.89 0.76 100 1005.3
20260506200538 14 219 8.0 17.7 0.33 0.89 0.76 100 1005.3
20260506200037 14 188 6.4 12.9 0.36 0.89 0.76 100 1005.3
20260506195535 14 199 4.8 16.1 0.28 0.81 0.69 100 1005.4
20260506195034 14 202 4.8 9.7 0.20 0.71 0.61 100 1005.4
20260506194533 14 244 3.2 9.7 0.20 0.71 0.58 100 1005.3
20260506194033 14 165 3.2 11.3 0.15 0.66 0.53 100 1005.2
20260506193534 14 215 6.4 11.3 0.13 0.64 0.51 100 1005.3
20260506193034 14 232 4.8 9.7 0.13 0.61 0.48 100 1005.4
20260506192533 14 172 3.2 6.4 0.13 0.61 0.48 100 1005.3
20260506192032 14 207 3.2 9.7 0.10 0.58 0.46 100 1005.5
20260506191533 14 297 3.2 11.3 0.13 0.58 0.46 100 1005.6
20260506191033 15 190 6.4 16.1 0.13 0.58 0.46 100 1005.8
20260506190532 15 204 6.4 17.7 0.10 0.56 0.43 100 1005.7
20260506190032 15 194 4.8 12.9 0.10 0.53 0.41 100 1005.6
20260506185532 15 202 4.8 12.9 0.10 0.53 0.41 100 1005.7
20260506185030 15 212 4.8 12.9 0.13 0.53 0.41 100 1005.8
20260506184532 15 210 4.8 12.9 0.13 0.51 0.38 100 1005.9
20260506184029 15 219 6.4 12.9 0.15 0.51 0.38 100 1006.0
20260506183529 15 198 4.8 12.9 0.15 0.51 0.38 100 1006.0
20260506183028 15 202 6.4 14.5 0.15 0.48 0.36 100 1005.9
20260506182530 15 219 6.4 14.5 0.18 0.48 0.36 100 1006.0
20260506182030 15 209 4.8 11.3 0.20 0.48 0.36 100 1006.0
20260506181526 15 182 4.8 12.9 0.20 0.46 0.33 100 1006.3
20260506181027 15 199 4.8 12.9 0.23 0.46 0.33 100 1006.3
20260506180525 15 188 1.6 4.8 0.25 0.46 0.33 100 1006.4
20260506180031 15 188 1.6 4.8 0.25 0.43 0.30 100 1006.4
20260506175525 15 188 0.0 3.2 0.30 0.43 0.30 100 1006.4
20260506175024 14 188 0.0 0.0 0.28 0.41 0.28 100 1006.4
20260506174530 14 188 0.0 0.0 0.25 0.38 0.25 100 1006.5
20260506174024 14 188 0.0 3.2 0.23 0.36 0.23 100 1006.5
20260506173524 14 188 0.0 3.2 0.23 0.36 0.23 99 1006.6
20260506173026 14 188 1.6 3.2 0.20 0.33 0.20 99 1006.6
20260506172523 14 136 0.0 1.6 0.18 0.30 0.18 98 1006.5
20260506172025 14 136 0.0 0.0 0.15 0.28 0.15 98 1006.5
20260506171534 14 136 0.0 1.6 0.13 0.25 0.13 97 1006.5
20260506171022 14 136 0.0 1.6 0.10 0.23 0.10 97 1006.4
20260506170524 15 136 0.0 3.2 0.08 0.20 0.08 96 1006.5
20260506170020 15 136 0.0 3.2 0.05 0.18 0.05 93 1006.5
20260506165520 15 136 0.0 3.2 0.00 0.13 0.00 92 1006.6
20260506165020 15 171 0.0 4.8 0.00 0.13 0.00 91 1006.5
20260506164523 15 171 0.0 4.8 0.00 0.13 0.00 90 1006.6
20260506164019 15 132 1.6 4.8 0.00 0.13 0.00 90 1006.7
20260506163520 15 111 0.0 4.8 0.00 0.13 0.00 89 1006.6
20260506163018 15 111 0.0 3.2 0.00 0.13 0.00 90 1006.6
20260506162519 15 111 0.0 3.2 0.00 0.13 0.00 90 1006.7
20260506162017 15 69 0.0 6.4 0.00 0.13 0.00 90 1006.8
20260506161516 15 69 1.6 6.4 0.00 0.13 0.00 89 1006.8
20260506161016 15 72 1.6 4.8 0.00 0.13 0.00 90 1006.9
20260506160517 15 72 3.2 4.8 0.00 0.13 0.00 90 1007.1
20260506160016 15 72 0.0 3.2 0.00 0.13 0.00 90 1007.4
20260506155513 16 72 0.0 3.2 0.00 0.13 0.00 89 1007.7
20260506155012 15 72 0.0 4.8 0.00 0.13 0.00 88 1007.9
20260506154513 15 72 0.0 4.8 0.00 0.13 0.00 88 1008.0
20260506154012 15 72 0.0 6.4 0.00 0.13 0.00 87 1007.9
20260506153512 15 64 1.6 4.8 0.00 0.13 0.00 88 1007.9
20260506153011 15 64 1.6 8.0 0.00 0.13 0.00 87 1007.8
20260506152515 15 133 1.6 8.0 0.00 0.13 0.00 88 1008.2
20260506152012 15 123 0.0 3.2 0.00 0.13 0.00 88 1008.1
20260506151511 15 53 0.0 3.2 0.00 0.13 0.00 88 1008.0
20260506151010 15 53 0.0 4.8 0.00 0.13 0.00 87 1008.0
20260506150513 15 53 1.6 4.8 0.00 0.13 0.00 87 1007.9
20260506150009 15 53 1.6 4.8 0.00 0.13 0.00 87 1007.9
20260506145509 15 193 1.6 4.8 0.00 0.13 0.00 86 1007.8
20260506145008 15 193 1.6 4.8 0.00 0.13 0.00 87 1007.9
20260506144507 15 193 0.0 4.8 0.00 0.13 0.00 87 1008.0
20260506144009 15 193 0.0 4.8 0.00 0.13 0.00 87 1008.0
20260506143507 15 193 0.0 4.8 0.00 0.13 0.00 87 1007.9
20260506143007 15 193 0.0 4.8 0.00 0.13 0.00 87 1007.9
20260506142508 15 193 1.6 4.8 0.00 0.13 0.00 86 1007.9
20260506142010 15 193 0.0 6.4 0.00 0.13 0.00 87 1008.0
20260506141506 15 193 0.0 6.4 0.00 0.13 0.00 86 1007.9
20260506141006 15 132 0.0 8.0 0.00 0.13 0.00 87 1007.9
20260506140506 15 132 1.6 8.0 0.00 0.13 0.00 87 1007.9
20260506140013 15 209 0.0 4.8 0.00 0.13 0.00 87 1007.9
20260506135506 15 186 0.0 3.2 0.00 0.13 0.00 87 1007.9
20260506135004 15 186 0.0 8.0 0.00 0.13 0.00 87 1007.9
20260506134505 15 186 0.0 8.0 0.00 0.13 0.00 87 1008.1
20260506134005 15 215 1.6 6.4 0.00 0.13 0.00 87 1008.2
20260506133505 15 211 0.0 4.8 0.00 0.13 0.00 87 1008.2
20260506133004 15 288 1.6 4.8 0.00 0.13 0.00 88 1008.4
20260506132504 15 202 0.0 8.0 0.00 0.13 0.00 87 1008.3
20260506132005 15 229 0.0 8.0 0.00 0.13 0.00 88 1008.4
20260506131506 14 175 1.6 4.8 0.00 0.13 0.00 88 1008.3
20260506131003 14 213 0.0 4.8 0.00 0.13 0.00 88 1008.4
20260506130505 14 138 1.6 11.3 0.00 0.13 0.00 87 1008.2
20260506130003 14 167 3.2 11.3 0.00 0.13 0.00 88 1008.1
20260506125502 14 160 3.2 9.7 0.00 0.13 0.00 88 1008.2
20260506125002 14 190 1.6 6.4 0.00 0.13 0.00 88 1008.2
20260506124502 14 215 3.2 9.7 0.00 0.13 0.00 88 1008.2
20260506124001 14 219 3.2 9.7 0.00 0.13 0.00 87 1008.1
20260506123502 14 197 1.6 6.4 0.00 0.13 0.00 87 1008.2
20260506123001 14 236 1.6 4.8 0.00 0.13 0.00 88 1008.2
20260506122501 14 236 1.6 6.4 0.00 0.13 0.00 87 1008.3
20260506122001 14 236 1.6 11.3 0.00 0.13 0.00 87 1008.4
20260506121602 14 280 3.2 11.3 0.00 0.13 0.00 88 1008.4
20260506121100 14 199 1.6 6.4 0.00 0.13 0.00 87 1008.4
20260506120602 14 283 0.0 8.0 0.00 0.13 0.00 87 1008.4
20260506115559 14 124 4.8 8.0 0.00 0.13 0.00 87 1008.6
20260506115100 13 196 1.6 8.0 0.00 0.13 0.00 88 1008.6
20260506114559 13 189 3.2 8.0 0.00 0.13 0.00 88 1008.6
20260506114101 13 188 0.0 8.0 0.00 0.13 0.00 89 1008.4
20260506113559 13 203 1.6 6.4 0.00 0.13 0.00 87 1008.5
20260506113059 13 154 3.2 6.4 0.00 0.13 0.00 88 1008.6
20260506112558 13 156 0.0 8.0 0.00 0.13 0.00 88 1008.6
20260506112159 13 156 1.6 8.0 0.00 0.13 0.00 88 1008.6
20260506111558 13 182 3.2 9.7 0.00 0.13 0.00 87 1008.6
20260506111100 13 200 4.8 16.1 0.00 0.13 0.00 87 1008.5
20260506110557 13 209 6.4 16.1 0.00 0.13 0.00 87 1008.6
20260506110057 13 244 3.2 9.7 0.00 0.13 0.00 87 1008.5
20260506105557 13 194 3.2 8.0 0.00 0.13 0.00 87 1008.6
20260506105100 13 200 3.2 12.9 0.00 0.13 0.00 87 1008.6
20260506104604 13 188 4.8 12.9 0.00 0.13 0.00 87 1008.7
20260506104058 13 196 4.8 11.3 0.00 0.13 0.00 87 1008.9
20260506103556 13 198 4.8 11.3 0.00 0.13 0.00 88 1008.5
20260506103056 13 215 4.8 9.7 0.00 0.13 0.00 88 1008.7
20260506102557 13 200 4.8 8.0 0.00 0.13 0.00 90 1008.6
20260506102055 13 211 4.8 8.0 0.00 0.13 0.00 90 1008.6
20260506101553 12 206 3.2 8.0 0.00 0.13 0.00 91 1008.5
20260506101053 12 198 4.8 8.0 0.00 0.13 0.00 93 1008.5
20260506100552 12 232 0.0 4.8 0.00 0.13 0.00 92 1008.4
20260506100151 12 232 0.0 0.0 0.00 0.13 0.00 91 1008.4
20260506095552 13 232 0.0 0.0 0.00 0.13 0.00 90 1008.3
20260506095051 13 232 0.0 0.0 0.00 0.13 0.00 90 1008.3
20260506094551 13 232 0.0 0.0 0.00 0.13 0.00 91 1008.3
20260506094050 13 232 0.0 0.0 0.00 0.13 0.00 91 1008.2
20260506093549 13 232 0.0 0.0 0.00 0.13 0.00 90 1008.3
20260506093049 13 232 0.0 0.0 0.00 0.13 0.00 89 1008.3
20260506092548 13 232 0.0 1.6 0.00 0.13 0.00 88 1008.4
20260506092048 13 232 0.0 4.8 0.00 0.13 0.00 88 1008.2
20260506091552 13 232 0.0 6.4 0.00 0.13 0.00 88 1008.1
20260506091048 13 232 3.2 6.4 0.00 0.13 0.00 89 1008.2
20260506090548 13 223 3.2 8.0 0.00 0.13 0.00 89 1008.4
20260506090048 13 215 3.2 8.0 0.00 0.13 0.00 89 1008.5
20260506085547 13 251 1.6 8.0 0.00 0.13 0.00 89 1008.3
20260506085047 13 193 4.8 8.0 0.00 0.13 0.00 91 1008.3
20260506084546 13 225 3.2 6.4 0.00 0.13 0.00 91 1008.4
20260506084046 13 232 3.2 8.0 0.00 0.13 0.00 91 1008.4
20260506083545 13 246 3.2 8.0 0.00 0.13 0.00 91 1008.4
20260506083046 13 255 4.8 8.0 0.00 0.13 0.00 90 1008.4
20260506082545 13 235 3.2 11.3 0.00 0.13 0.00 90 1008.3
20260506082044 13 240 3.2 11.3 0.00 0.13 0.00 90 1008.4
20260506081544 13 230 4.8 11.3 0.00 0.13 0.00 89 1008.4
20260506081042 14 263 3.2 8.0 0.00 0.13 0.00 89 1008.5
20260506080542 13 244 0.0 4.8 0.00 0.13 0.00 89 1008.4
20260506073038 14 219 6.4 14.5 0.00 0.13 0.00 89 1008.3
20260506072538 14 176 6.4 11.3 0.00 0.13 0.00 90 1008.3
20260506072037 14 221 4.8 12.9 0.00 0.13 0.00 89 1008.2
20260506071536 14 220 4.8 12.9 0.00 0.13 0.00 89 1008.2
20260506071036 14 225 6.4 12.9 0.00 0.13 0.00 90 1008.1
20260506070535 14 204 4.8 9.7 0.00 0.13 0.00 89 1008.1
20260506062037 14 202 4.8 9.7 0.00 0.13 0.00 91 1008.2
20260506061533 14 209 4.8 12.9 0.00 0.13 0.00 91 1008.1
20260506061034 15 211 4.8 12.9 0.00 0.13 0.00 90 1008.1
20260506060532 15 206 3.2 6.4 0.00 0.13 0.00 89 1007.9
20260506051030 15 209 3.2 9.7 0.00 0.13 0.00 91 1008.2
20260506050528 15 225 3.2 9.7 0.00 0.13 0.00 91 1008.3
20260506045027 15 204 0.0 0.0 0.00 0.13 0.00 92 1008.4
20260506044533 15 209 0.0 0.0 0.00 0.13 0.00 92 1008.4
20260506044026 14 209 0.0 0.0 0.00 0.13 0.00 92 1008.3
20260506043525 14 209 0.0 0.0 0.00 0.13 0.00 92 1008.2
20260506043125 14 209 0.0 0.0 0.00 0.13 0.00 92 1008.2
20260506042526 15 184 0.0 0.0 0.00 0.13 0.00 91 1008.1
20260506042022 15 184 0.0 0.0 0.00 0.13 0.00 90 1008.2
20260506041522 15 184 0.0 3.2 0.00 0.13 0.00 90 1008.0
20260506041020 15 184 0.0 3.2 0.00 0.13 0.00 89 1008.1
20260506040519 15 184 0.0 4.8 0.00 0.13 0.00 88 1008.2
20260506040018 15 184 1.6 6.4 0.00 0.13 0.00 88 1008.3
20260506035524 15 184 3.2 6.4 0.00 0.13 0.13 89 1008.3
20260506035019 15 201 3.2 6.4 0.00 0.13 0.13 88 1008.3
20260506034519 15 201 1.6 6.4 0.00 0.13 0.13 87 1008.2
20260506034018 15 227 1.6 4.8 0.00 0.13 0.13 87 1008.2
20260506033517 15 227 1.6 6.4 0.00 0.13 0.13 86 1008.2
20260506033023 15 227 1.6 8.0 0.00 0.13 0.13 88 1008.2
20260506032518 15 169 3.2 8.0 0.00 0.13 0.13 90 1008.3
20260506032018 14 205 1.6 6.4 0.00 0.13 0.13 92 1008.4
20260506031528 14 209 0.0 0.0 0.00 0.13 0.13 92 1008.4
20260506031017 14 227 0.0 0.0 0.00 0.13 0.13 93 1008.2
20260506030519 14 186 0.0 0.0 0.00 0.13 0.13 92 1008.2
20260506030040 14 186 0.0 0.0 0.00 0.13 0.13 91 1008.2
20260506025516 15 186 0.0 0.0 0.00 0.13 0.13 90 1008.1
20260506025019 15 186 0.0 0.0 0.00 0.13 0.13 90 1008.2
20260506024525 15 186 0.0 1.6 0.00 0.13 0.13 90 1008.2
20260506024017 14 186 0.0 3.2 0.00 0.13 0.13 91 1008.2
20260506023515 14 186 1.6 4.8 0.00 0.13 0.13 92 1008.2
20260506023015 14 186 1.6 4.8 0.00 0.13 0.13 92 1008.0
20260506022515 15 186 3.2 4.8 0.00 0.13 0.13 90 1008.0
20260506022015 15 186 0.0 6.4 0.00 0.13 0.13 88 1008.0
20260506021515 15 194 3.2 9.7 0.00 0.13 0.13 89 1007.9
20260506021015 15 180 6.4 9.7 0.00 0.13 0.13 91 1008.0
20260506020520 15 196 3.2 6.4 0.00 0.13 0.13 92 1008.0
20260506020015 15 218 1.6 4.8 0.00 0.13 0.13 91 1008.0
20260506015517 15 218 1.6 4.8 0.00 0.13 0.13 90 1008.1
20260506015015 15 218 0.0 4.8 0.00 0.13 0.13 89 1008.1
20260506014514 15 218 0.0 3.2 0.00 0.13 0.13 88 1008.2
20260506014014 15 218 0.0 3.2 0.00 0.13 0.13 86 1008.3
20260506013514 15 218 0.0 6.4 0.00 0.13 0.13 87 1008.1
20260506013015 15 218 3.2 6.4 0.00 0.13 0.13 89 1008.3
20260506012514 15 218 1.6 6.4 0.00 0.13 0.13 91 1008.3
20260506012014 15 218 1.6 4.8 0.00 0.13 0.13 92 1008.2
20260506011517 15 193 3.2 4.8 0.00 0.13 0.13 90 1008.2
20260506011015 15 193 1.6 3.2 0.00 0.13 0.13 90 1008.1
20260506010513 15 193 1.6 3.2 0.00 0.13 0.13 90 1008.0
20260506010013 15 193 1.6 3.2 0.00 0.13 0.13 89 1007.9
20260506005513 15 193 1.6 3.2 0.00 0.13 0.13 89 1007.9
20260506005012 15 193 0.0 4.8 0.00 0.13 0.13 89 1007.9
20260506004524 16 193 0.0 4.8 0.00 0.13 0.13 84 1007.9
20260506004012 16 193 0.0 3.2 0.00 0.13 0.13 83 1007.8
20260506003512 16 193 0.0 1.6 0.00 0.13 0.13 84 1007.7
20260506003012 16 193 0.0 3.2 0.00 0.13 0.13 83 1007.7
20260506002512 16 193 0.0 3.2 0.00 0.13 0.13 84 1007.5
20260506002014 15 193 0.0 1.6 0.00 0.13 0.13 85 1007.5
20260506001512 15 193 0.0 1.6 0.00 0.13 0.13 86 1007.4